QPF
0.02 0.01 0.02 0.02 0.01 0.01 0.03 0.02 0.02 0.02 0.01 0.01 0.01 0.02 0.02 0.02 0.02 0.01 0.01 0.01 0.02 0.05 0.07 0.08 0.09 0.08 0.09 0.11 0.10 0.06 0.03 0.02 0.02 0.02 0.03 0.03 0.03 0.03 0.04 0.04 0.04 0.05 0.05 0.05
0.02 0.02 0.02 0.02 0.01 0.01 0.01 0.02 0.02 0.01 0.01 0.01 0.01 0.01 0.02 0.02 0.02 0.02 0.02 0.01 0.01 0.02 0.05 0.07 0.08 0.07 0.07 0.10 0.12 0.09 0.06 0.04 0.04 0.04 0.03 0.03 0.03 0.04 0.05 0.06 0.05 0.05 0.06 0.06
0.02 0.02 0.02 0.02 0.01 0.01 0.01 0.01 0.01 0.01 0.01 0.01 0.01 0.01 0.02 0.03 0.03 0.03 0.03 0.02 0.02 0.02 0.02 0.04 0.06 0.07 0.06 0.07 0.09 0.09 0.07 0.07 0.07 0.05 0.05 0.05 0.05 0.05 0.05 0.06 0.06 0.06 0.06 0.07
0.02 0.01 0.02 0.02 0.01 0.01 0.01 0.01 0.01 0.01 0.01 0.01 0.01 0.02 0.02 0.03 0.04 0.04 0.03 0.03 0.03 0.03 0.03 0.03 0.04 0.05 0.05 0.06 0.07 0.07 0.09 0.10 0.10 0.07 0.06 0.06 0.06 0.06 0.06 0.07 0.07 0.08 0.09 0.08
0.02 0.01 0.01 0.01 0.01 0.01 0.02 0.01 0.01 0.01 0.01 0.01 0.01 0.01 0.01 0.02 0.04 0.05 0.04 0.04 0.04 0.03 0.03 0.03 0.03 0.03 0.04 0.05 0.07 0.08 0.09 0.10 0.10 0.09 0.08 0.08 0.07 0.08 0.09 0.08 0.09 0.09 0.10 0.08
0.02 0.01 0.00 0.00 0.00 0.01 0.01 0.01 0.01 0.01 0.02 0.01 0.01 0.02 0.02 0.02 0.03 0.04 0.03 0.04 0.04 0.03 0.03 0.02 0.03 0.03 0.03 0.04 0.06 0.07 0.08 0.10 0.10 0.09 0.09 0.10 0.08 0.09 0.08 0.08 0.08 0.09 0.09 0.08
0.01 0.01 0.00 0.00 0.00 0.01 0.01 0.01 0.01 0.02 0.02 0.02 0.03 0.04 0.04 0.03 0.03 0.04 0.04 0.04 0.04 0.03 0.03 0.03 0.03 0.03 0.02 0.02 0.04 0.05 0.07 0.08 0.10 0.10 0.10 0.10 0.10 0.10 0.09 0.09 0.09 0.08 0.07 0.07
0.01 0.01 0.01 0.00 0.01 0.01 0.02 0.01 0.01 0.01 0.02 0.02 0.03 0.03 0.03 0.03 0.03 0.03 0.04 0.04 0.04 0.03 0.03 0.03 0.04 0.03 0.02 0.03 0.05 0.05 0.05 0.06 0.08 0.09 0.10 0.09 0.09 0.10 0.09 0.08 0.07 0.06 0.06 0.06
0.02 0.01 0.01 0.01 0.01 0.01 0.01 0.01 0.01 0.01 0.01 0.02 0.03 0.03 0.03 0.03 0.03 0.04 0.04 0.05 0.05 0.04 0.04 0.04 0.04 0.03 0.03 0.04 0.04 0.05 0.05 0.06 0.07 0.08 0.08 0.09 0.08 0.08 0.08 0.07 0.06 0.06 0.06 0.06
0.01 0.01 0.01 0.01 0.00 0.01 0.01 0.01 0.01 0.01 0.01 0.02 0.03 0.03 0.03 0.03 0.03 0.04 0.04 0.05 0.05 0.04 0.04 0.04 0.04 0.03 0.03 0.03 0.04 0.04 0.05 0.07 0.08 0.09 0.09 0.08 0.08 0.07 0.06 0.06 0.05 0.05 0.05 0.04
0.01 0.00 0.00 0.00 0.00 0.01 0.01 0.01 0.01 0.01 0.01 0.01 0.02 0.03 0.03 0.03 0.03 0.04 0.05 0.05 0.04 0.03 0.04 0.04 0.04 0.03 0.04 0.04 0.04 0.04 0.05 0.07 0.08 0.09 0.08 0.08 0.08 0.06 0.05 0.05 0.04 0.04 0.04 0.04
0.00 0.00 0.00 0.00 0.00 0.00 0.01 0.01 0.01 0.01 0.01 0.01 0.02 0.02 0.03 0.03 0.03 0.03 0.04 0.04 0.04 0.04 0.05 0.05 0.04 0.04 0.04 0.05 0.05 0.05 0.05 0.06 0.07 0.07 0.07 0.06 0.05 0.05 0.04 0.03 0.03 0.03 0.03 0.03
0.00 0.00 0.00 0.00 0.00 0.00 0.01 0.01 0.01 0.01 0.01 0.01 0.01 0.02 0.02 0.03 0.03 0.02 0.03 0.03 0.04 0.05 0.05 0.05 0.05 0.05 0.06 0.06 0.06 0.06 0.06 0.06 0.06 0.05 0.04 0.03 0.02 0.02 0.02 0.02 0.02 0.02 0.02 0.02
0.00 0.00 0.00 0.00 0.00 0.00 0.01 0.01 0.01 0.01 0.01 0.01 0.02 0.02 0.02 0.02 0.02 0.02 0.03 0.03 0.04 0.05 0.05 0.05 0.05 0.06 0.06 0.06 0.06 0.05 0.05 0.04 0.04 0.03 0.03 0.02 0.02 0.02 0.02 0.02 0.02 0.02 0.02 0.02
0.00 0.00 0.00 0.00 0.00 0.00 0.01 0.01 0.01 0.01 0.01 0.01 0.01 0.01 0.02 0.02 0.02 0.03 0.03 0.03 0.03 0.03 0.04 0.04 0.04 0.04 0.04 0.04 0.03 0.03 0.02 0.02 0.02 0.02 0.02 0.02 0.02 0.01 0.01 0.02 0.02 0.01 0.01 0.02
0.00 0.00 0.00 0.00 0.00 0.00 0.01 0.01 0.01 0.01 0.01 0.01 0.01 0.02 0.02 0.02 0.02 0.02 0.03 0.02 0.02 0.03 0.03 0.03 0.03 0.02 0.02 0.02 0.01 0.01 0.01 0.01 0.01 0.01 0.01 0.01 0.01 0.01 0.01 0.01 0.02 0.02 0.02 0.02
0.00 0.00 0.00 0.00 0.00 0.00 0.01 0.01 0.01 0.01 0.01 0.01 0.02 0.02 0.02 0.01 0.01 0.01 0.02 0.02 0.02 0.02 0.02 0.02 0.02 0.01 0.01 0.01 0.01 0.01 0.01 0.01 0.01 0.01 0.01 0.01 0.01 0.01 0.01 0.01 0.02 0.02 0.02 0.02
0.01 0.01 0.01 0.01 0.01 0.01 0.01 0.01 0.01 0.01 0.01 0.01 0.01 0.01 0.01 0.01 0.01 0.02 0.02 0.02 0.01 0.01 0.01 0.02 0.01 0.01 0.01 0.01 0.01 0.01 0.01 0.01 0.01 0.01 0.01 0.01 0.01 0.01 0.01 0.01 0.01 0.01 0.02 0.01
0.01 0.01 0.01 0.01 0.01 0.01 0.01 0.01 0.01 0.01 0.01 0.01 0.01 0.01 0.01 0.01 0.01 0.01 0.01 0.01 0.01 0.01 0.01 0.01 0.01 0.01 0.01 0.01 0.01 0.01 0.01 0.01 0.01 0.01 0.01 0.01 0.01 0.01 0.01 0.01 0.01 0.01 0.01 0.02
0.01 0.01 0.01 0.01 0.01 0.01 0.01 0.01 0.01 0.01 0.01 0.01 0.01 0.01 0.01 0.01 0.01 0.01 0.01 0.01 0.01 0.01 0.01 0.01 0.01 0.01 0.01 0.01 0.01 0.01 0.01 0.01 0.01 0.01 0.01 0.01 0.01 0.01 0.01 0.01 0.01 0.01 0.02 0.02
0.00 0.00 0.00 0.00 0.00 0.00 0.01 0.01 0.01 0.01 0.01 0.01 0.01 0.01 0.01 0.01 0.01 0.01 0.01 0.01 0.01 0.01 0.01 0.01 0.01 0.01 0.01 0.01 0.01 0.01 0.01 0.01 0.01 0.01 0.01 0.02 0.02 0.02 0.02 0.02 0.01 0.01 0.02 0.02
0.00 0.00 0.00 0.00 0.00 0.00 0.01 0.01 0.01 0.01 0.01 0.01 0.01 0.01 0.01 0.01 0.01 0.01 0.01 0.01 0.01 0.01 0.01 0.01 0.01 0.01 0.01 0.01 0.01 0.01 0.01 0.01 0.02 0.02 0.02 0.02 0.02 0.02 0.02 0.02 0.02 0.02 0.02 0.02
0.00 0.00 0.00 0.00 0.00 0.00 0.01 0.01 0.01 0.01 0.01 0.01 0.01 0.01 0.01 0.01 0.01 0.02 0.01 0.01 0.01 0.01 0.01 0.01 0.01 0.01 0.01 0.01 0.01 0.01 0.01 0.01 0.02 0.02 0.02 0.02 0.02 0.02 0.02 0.02 0.02 0.02 0.02 0.03
0.00 0.00 0.00 0.00 0.00 0.00 0.00 0.01 0.01 0.01 0.01 0.01 0.01 0.01 0.01 0.01 0.01 0.02 0.02 0.01 0.01 0.01 0.01 0.01 0.01 0.01 0.01 0.01 0.01 0.01 0.01 0.01 0.02 0.02 0.02 0.02 0.02 0.02 0.02 0.02 0.03 0.03 0.03 0.03
0.00 0.00 0.00 0.00 0.00 0.00 0.00 0.00 0.01 0.01 0.01 0.01 0.01 0.01 0.01 0.02 0.02 0.02 0.01 0.01 0.01 0.01 0.01 0.01 0.01 0.01 0.01 0.01 0.01 0.02 0.02 0.02 0.02 0.02 0.02 0.02 0.02 0.02 0.03 0.03 0.03 0.03 0.03 0.03
0.00 0.00 0.01 0.01 0.01 0.01 0.01 0.01 0.00 0.01 0.01 0.01 0.01 0.01 0.01 0.02 0.02 0.02 0.01 0.01 0.01 0.01 0.01 0.01 0.01 0.01 0.01 0.01 0.02 0.02 0.02 0.02 0.02 0.02 0.02 0.02 0.03 0.03 0.03 0.03 0.03 0.03 0.03 0.02
0.00 0.00 0.00 0.00 0.00 0.00 0.00 0.00 0.00 0.00 0.01 0.01 0.01 0.01 0.01 0.01 0.01 0.02 0.02 0.01 0.01 0.01 0.01 0.01 0.01 0.01 0.01 0.02 0.02 0.02 0.02 0.02 0.02 0.02 0.02 0.02 0.03 0.03 0.03 0.03 0.03 0.03 0.02 0.02
MSLP
1026.46 1026.48 1026.45 1026.34 1026.12 1025.74 1025.13 1024.28 1023.19 1021.88 1020.43 1018.95 1017.53 1016.31 1015.37 1014.76 1014.49 1014.53 1014.80 1015.19 1015.59 1015.91 1016.06 1016.00 1015.74 1015.28 1014.69 1014.01 1013.30 1012.60 1011.92 1011.27 1010.66 1010.05 1009.44 1008.83 1008.22 1007.63 1007.07 1006.57 1006.12 1005.72 1005.35 1004.99
1026.79 1026.57 1026.23 1025.79 1025.24 1024.55 1023.72 1022.74 1021.62 1020.39 1019.12 1017.88 1016.75 1015.80 1015.10 1014.68 1014.54 1014.63 1014.90 1015.25 1015.58 1015.82 1015.91 1015.79 1015.48 1014.99 1014.36 1013.64 1012.88 1012.11 1011.36 1010.65 1009.96 1009.30 1008.67 1008.05 1007.45 1006.87 1006.34 1005.84 1005.39 1004.96 1004.55 1004.12
1027.06 1026.57 1025.93 1025.15 1024.26 1023.29 1022.25 1021.16 1020.05 1018.93 1017.87 1016.89 1016.05 1015.39 1014.94 1014.71 1014.69 1014.83 1015.08 1015.36 1015.61 1015.76 1015.76 1015.57 1015.21 1014.68 1014.02 1013.26 1012.45 1011.63 1010.82 1010.04 1009.30 1008.59 1007.93 1007.30 1006.71 1006.15 1005.63 1005.14 1004.67 1004.20 1003.72 1003.22
1027.16 1026.42 1025.49 1024.40 1023.22 1022.01 1020.80 1019.64 1018.56 1017.58 1016.72 1016.00 1015.45 1015.06 1014.84 1014.78 1014.86 1015.03 1015.25 1015.46 1015.62 1015.67 1015.57 1015.32 1014.91 1014.34 1013.65 1012.87 1012.03 1011.17 1010.31 1009.48 1008.69 1007.94 1007.24 1006.59 1006.00 1005.44 1004.92 1004.41 1003.91 1003.40 1002.85 1002.26
1026.97 1026.02 1024.85 1023.53 1022.13 1020.74 1019.43 1018.25 1017.22 1016.37 1015.71 1015.24 1014.93 1014.78 1014.76 1014.83 1014.98 1015.16 1015.34 1015.48 1015.55 1015.50 1015.33 1015.02 1014.56 1013.98 1013.27 1012.48 1011.62 1010.73 1009.83 1008.95 1008.11 1007.31 1006.57 1005.89 1005.27 1004.69 1004.15 1003.61 1003.07 1002.51 1001.90 1001.24
1026.37 1025.28 1023.95 1022.49 1020.97 1019.50 1018.15 1017.00 1016.06 1015.35 1014.88 1014.60 1014.50 1014.53 1014.66 1014.83 1015.02 1015.20 1015.33 1015.40 1015.38 1015.26 1015.02 1014.67 1014.19 1013.59 1012.88 1012.09 1011.22 1010.30 1009.37 1008.44 1007.53 1006.68 1005.88 1005.15 1004.48 1003.86 1003.28 1002.71 1002.12 1001.51 1000.85 1000.15
1025.27 1024.12 1022.75 1021.25 1019.72 1018.27 1016.98 1015.91 1015.09 1014.53 1014.21 1014.10 1014.16 1014.32 1014.54 1014.77 1014.98 1015.14 1015.23 1015.23 1015.15 1014.97 1014.68 1014.30 1013.80 1013.20 1012.50 1011.69 1010.81 1009.87 1008.90 1007.91 1006.95 1006.02 1005.15 1004.35 1003.61 1002.94 1002.30 1001.68 1001.06 1000.41 999.72 999.00
1023.69 1022.57 1021.24 1019.82 1018.40 1017.07 1015.91 1014.98 1014.31 1013.90 1013.73 1013.75 1013.91 1014.15 1014.42 1014.68 1014.88 1015.02 1015.07 1015.03 1014.89 1014.67 1014.36 1013.95 1013.44 1012.84 1012.13 1011.32 1010.42 1009.45 1008.42 1007.38 1006.34 1005.33 1004.37 1003.49 1002.68 1001.93 1001.24 1000.57 999.91 999.25 998.57 997.88
1021.72 1020.69 1019.51 1018.27 1017.04 1015.91 1014.96 1014.22 1013.73 1013.47 1013.41 1013.53 1013.76 1014.05 1014.34 1014.59 1014.79 1014.89 1014.91 1014.84 1014.67 1014.42 1014.09 1013.67 1013.15 1012.53 1011.81 1010.98 1010.05 1009.03 1007.95 1006.84 1005.72 1004.63 1003.60 1002.63 1001.74 1000.92 1000.17 999.47 998.79 998.14 997.50 996.87
1019.53 1018.66 1017.70 1016.70 1015.74 1014.87 1014.17 1013.65 1013.33 1013.21 1013.26 1013.45 1013.72 1014.02 1014.31 1014.56 1014.73 1014.82 1014.81 1014.72 1014.53 1014.27 1013.91 1013.47 1012.94 1012.30 1011.55 1010.69 1009.72 1008.65 1007.52 1006.35 1005.16 1004.00 1002.89 1001.85 1000.89 1000.02 999.23 998.51 997.84 997.22 996.63 996.10
1017.37 1016.70 1015.98 1015.27 1014.60 1014.02 1013.57 1013.26 1013.12 1013.13 1013.26 1013.49 1013.78 1014.08 1014.35 1014.58 1014.74 1014.81 1014.79 1014.68 1014.49 1014.21 1013.84 1013.38 1012.82 1012.14 1011.36 1010.45 1009.44 1008.34 1007.16 1005.94 1004.71 1003.50 1002.34 1001.26 1000.27 999.37 998.56 997.84 997.20 996.63 996.13 995.71
1015.48 1015.01 1014.55 1014.11 1013.72 1013.41 1013.20 1013.09 1013.09 1013.19 1013.38 1013.63 1013.91 1014.20 1014.45 1014.66 1014.80 1014.86 1014.84 1014.73 1014.52 1014.23 1013.84 1013.35 1012.76 1012.05 1011.23 1010.28 1009.24 1008.11 1006.91 1005.68 1004.44 1003.23 1002.07 1000.99 1000.00 999.11 998.31 997.63 997.03 996.52 996.11 995.80
1014.05 1013.77 1013.52 1013.33 1013.18 1013.09 1013.06 1013.10 1013.20 1013.37 1013.58 1013.83 1014.09 1014.35 1014.58 1014.77 1014.90 1014.96 1014.93 1014.82 1014.61 1014.30 1013.88 1013.36 1012.73 1011.99 1011.13 1010.17 1009.11 1007.99 1006.81 1005.61 1004.41 1003.24 1002.13 1001.09 1000.15 999.31 998.57 997.93 997.40 996.97 996.64 996.42
1013.16 1013.03 1012.96 1012.94 1012.97 1013.04 1013.14 1013.27 1013.42 1013.61 1013.81 1014.04 1014.27 1014.50 1014.71 1014.88 1015.00 1015.05 1015.03 1014.91 1014.69 1014.36 1013.92 1013.36 1012.70 1011.93 1011.05 1010.09 1009.06 1007.97 1006.86 1005.73 1004.62 1003.55 1002.54 1001.60 1000.75 999.99 999.33 998.77 998.31 997.95 997.70 997.56
1012.79 1012.76 1012.81 1012.91 1013.05 1013.20 1013.36 1013.52 1013.68 1013.86 1014.03 1014.22 1014.42 1014.62 1014.80 1014.96 1015.07 1015.12 1015.09 1014.96 1014.73 1014.38 1013.91 1013.33 1012.64 1011.86 1010.99 1010.05 1009.07 1008.06 1007.05 1006.04 1005.07 1004.14 1003.27 1002.47 1001.74 1001.09 1000.53 1000.06 999.68 999.39 999.21 999.12
1012.80 1012.84 1012.95 1013.12 1013.30 1013.47 1013.64 1013.79 1013.93 1014.06 1014.19 1014.34 1014.50 1014.67 1014.84 1014.99 1015.10 1015.15 1015.11 1014.98 1014.73 1014.36 1013.87 1013.27 1012.56 1011.78 1010.94 1010.05 1009.15 1008.25 1007.36 1006.51 1005.70 1004.94 1004.24 1003.59 1003.01 1002.49 1002.04 1001.67 1001.36 1001.14 1001.00 1000.95
1013.03 1013.10 1013.23 1013.41 1013.58 1013.74 1013.88 1013.99 1014.08 1014.17 1014.26 1014.38 1014.51 1014.66 1014.82 1014.96 1015.07 1015.12 1015.09 1014.94 1014.68 1014.29 1013.78 1013.17 1012.47 1011.71 1010.90 1010.09 1009.28 1008.51 1007.77 1007.09 1006.45 1005.87 1005.34 1004.86 1004.42 1004.03 1003.69 1003.40 1003.17 1003.01 1002.91 1002.88
1013.27 1013.35 1013.48 1013.63 1013.78 1013.90 1013.99 1014.05 1014.10 1014.15 1014.21 1014.30 1014.43 1014.58 1014.74 1014.89 1015.01 1015.06 1015.03 1014.88 1014.60 1014.20 1013.69 1013.07 1012.39 1011.66 1010.91 1010.18 1009.48 1008.83 1008.24 1007.72 1007.25 1006.84 1006.47 1006.13 1005.83 1005.55 1005.31 1005.10 1004.93 1004.81 1004.75 1004.74
1013.37 1013.44 1013.55 1013.67 1013.78 1013.85 1013.90 1013.93 1013.95 1013.97 1014.03 1014.12 1014.25 1014.42 1014.60 1014.77 1014.90 1014.97 1014.94 1014.79 1014.51 1014.11 1013.60 1013.00 1012.35 1011.66 1010.97 1010.33 1009.73 1009.20 1008.75 1008.36 1008.04 1007.76 1007.52 1007.31 1007.11 1006.93 1006.76 1006.61 1006.50 1006.42 1006.38 1006.39
1013.23 1013.30 1013.39 1013.48 1013.55 1013.59 1013.61 1013.62 1013.62 1013.65 1013.72 1013.83 1013.99 1014.19 1014.39 1014.59 1014.75 1014.83 1014.82 1014.68 1014.41 1014.03 1013.54 1012.96 1012.35 1011.71 1011.10 1010.53 1010.03 1009.60 1009.26 1008.98 1008.77 1008.59 1008.45 1008.32 1008.20 1008.08 1007.97 1007.87 1007.79 1007.75 1007.74 1007.77
1012.88 1012.93 1013.00 1013.07 1013.11 1013.14 1013.14 1013.15 1013.16 1013.21 1013.31 1013.45 1013.65 1013.88 1014.13 1014.36 1014.55 1014.65 1014.66 1014.54 1014.30 1013.94 1013.48 1012.95 1012.38 1011.81 1011.27 1010.78 1010.36 1010.02 1009.76 1009.57 1009.43 1009.32 1009.24 1009.17 1009.09 1009.02 1008.94 1008.88 1008.83 1008.81 1008.83 1008.89
1012.36 1012.40 1012.46 1012.51 1012.54 1012.56 1012.56 1012.58 1012.61 1012.69 1012.82 1013.00 1013.24 1013.51 1013.79 1014.06 1014.27 1014.40 1014.44 1014.35 1014.14 1013.82 1013.42 1012.94 1012.44 1011.94 1011.47 1011.06 1010.72 1010.45 1010.25 1010.11 1010.03 1009.96 1009.92 1009.87 1009.82 1009.77 1009.72 1009.68 1009.66 1009.66 1009.71 1009.79
1011.78 1011.82 1011.87 1011.90 1011.93 1011.94 1011.95 1011.97 1012.03 1012.13 1012.29 1012.51 1012.78 1013.08 1013.39 1013.68 1013.92 1014.08 1014.15 1014.10 1013.94 1013.67 1013.33 1012.92 1012.50 1012.08 1011.68 1011.35 1011.07 1010.87 1010.72 1010.63 1010.57 1010.53 1010.51 1010.48 1010.45 1010.41 1010.38 1010.36 1010.36 1010.39 1010.46 1010.58
1011.24 1011.28 1011.31 1011.34 1011.35 1011.35 1011.36 1011.39 1011.46 1011.58 1011.76 1012.00 1012.28 1012.60 1012.93 1013.24 1013.50 1013.69 1013.79 1013.78 1013.67 1013.47 1013.20 1012.88 1012.53 1012.19 1011.89 1011.62 1011.42 1011.27 1011.16 1011.11 1011.08 1011.06 1011.05 1011.04 1011.02 1011.00 1010.99 1010.99 1011.01 1011.07 1011.17 1011.31
1010.81 1010.83 1010.85 1010.86 1010.86 1010.85 1010.85 1010.88 1010.95 1011.07 1011.25 1011.49 1011.78 1012.10 1012.44 1012.75 1013.03 1013.24 1013.37 1013.41 1013.35 1013.22 1013.03 1012.79 1012.54 1012.29 1012.07 1011.88 1011.74 1011.64 1011.58 1011.56 1011.55 1011.56 1011.57 1011.57 1011.57 1011.58 1011.59 1011.61 1011.67 1011.75 1011.87 1012.03
1010.50 1010.51 1010.50 1010.49 1010.46 1010.44 1010.42 1010.43 1010.49 1010.60 1010.77 1011.00 1011.28 1011.60 1011.93 1012.24 1012.52 1012.75 1012.91 1013.00 1013.01 1012.95 1012.83 1012.69 1012.52 1012.36 1012.21 1012.10 1012.02 1011.98 1011.97 1011.98 1012.00 1012.03 1012.06 1012.09 1012.12 1012.14 1012.18 1012.24 1012.32 1012.43 1012.57 1012.75
1010.25 1010.24 1010.21 1010.17 1010.12 1010.07 1010.03 1010.03 1010.07 1010.16 1010.32 1010.53 1010.79 1011.09 1011.41 1011.72 1012.01 1012.26 1012.45 1012.58 1012.65 1012.66 1012.62 1012.56 1012.48 1012.40 1012.33 1012.29 1012.27 1012.27 1012.31 1012.35 1012.40 1012.46 1012.52 1012.57 1012.62 1012.68 1012.75 1012.83 1012.94 1013.07 1013.24 1013.42
Thickness
5412 5418 5416 5417 5417 5410 5414 5422 5426 5437 5437 5452 5448 5445 5445 5445 5444 5445 5445 5446 5445 5444 5444 5445 5445 5445 5446 5445 5444 5443 5442 5442 5442 5441 5440 5440 5439 5438 5437 5436 5435 5434 5434 5435
5409 5414 5411 5413 5417 5413 5413 5416 5418 5424 5433 5440 5436 5436 5435 5436 5437 5437 5437 5438 5437 5437 5437 5438 5437 5438 5438 5438 5437 5436 5434 5434 5433 5432 5431 5431 5431 5430 5429 5427 5426 5425 5425 5426
5405 5404 5411 5416 5420 5414 5413 5413 5416 5424 5434 5432 5431 5433 5431 5429 5430 5430 5430 5430 5430 5430 5430 5430 5430 5430 5430 5429 5429 5428 5427 5427 5425 5425 5424 5424 5424 5422 5420 5419 5418 5417 5417 5417
5392 5399 5411 5429 5418 5415 5415 5414 5411 5416 5421 5421 5422 5423 5423 5423 5422 5422 5423 5424 5424 5423 5424 5424 5423 5423 5423 5422 5421 5421 5420 5420 5419 5418 5418 5417 5415 5414 5412 5411 5409 5408 5408 5409
5383 5390 5401 5419 5415 5408 5409 5416 5414 5411 5414 5414 5415 5418 5422 5421 5417 5415 5416 5417 5417 5417 5417 5417 5417 5417 5416 5415 5413 5413 5413 5412 5411 5411 5410 5409 5408 5406 5404 5403 5401 5400 5401 5401
5375 5392 5406 5421 5412 5406 5410 5414 5416 5409 5410 5408 5409 5413 5417 5416 5412 5411 5411 5411 5411 5411 5410 5411 5410 5409 5408 5407 5406 5405 5405 5404 5404 5403 5403 5401 5400 5398 5397 5396 5394 5393 5393 5393
5371 5379 5397 5408 5401 5405 5410 5417 5413 5406 5405 5403 5402 5405 5407 5407 5407 5406 5406 5405 5405 5404 5404 5404 5403 5402 5401 5399 5398 5398 5397 5397 5397 5396 5394 5394 5392 5391 5389 5388 5387 5386 5386 5386
5366 5377 5399 5400 5396 5398 5406 5406 5404 5402 5401 5399 5398 5399 5399 5400 5400 5401 5400 5400 5399 5397 5397 5397 5395 5394 5393 5392 5391 5391 5390 5390 5389 5388 5387 5387 5384 5383 5381 5380 5379 5378 5379 5379
5380 5395 5398 5392 5395 5397 5395 5397 5398 5396 5396 5394 5392 5393 5394 5393 5393 5393 5393 5392 5391 5390 5390 5389 5387 5386 5385 5385 5384 5384 5383 5383 5382 5381 5379 5378 5376 5375 5374 5372 5372 5372 5373 5373
5372 5386 5390 5389 5389 5390 5391 5391 5393 5392 5391 5389 5388 5387 5387 5386 5386 5386 5385 5385 5384 5383 5382 5381 5379 5379 5378 5378 5377 5377 5376 5375 5374 5372 5371 5370 5369 5368 5368 5367 5367 5368 5368 5367
5371 5382 5386 5391 5387 5387 5388 5387 5387 5387 5386 5385 5383 5382 5381 5379 5379 5378 5379 5378 5377 5375 5374 5373 5372 5371 5372 5371 5371 5369 5368 5367 5365 5364 5363 5362 5362 5361 5362 5361 5362 5363 5362 5362
5384 5387 5384 5389 5388 5384 5383 5383 5382 5381 5381 5380 5378 5376 5375 5373 5372 5372 5371 5370 5369 5368 5368 5367 5366 5366 5365 5365 5364 5363 5362 5360 5359 5358 5357 5356 5356 5356 5356 5357 5358 5358 5358 5357
5383 5383 5381 5382 5381 5379 5378 5377 5376 5375 5374 5373 5372 5370 5369 5367 5366 5365 5365 5364 5363 5362 5362 5361 5360 5360 5360 5359 5359 5357 5356 5355 5354 5353 5352 5352 5351 5351 5352 5352 5352 5352 5353 5353
5374 5375 5377 5377 5375 5373 5371 5370 5368 5367 5367 5366 5365 5364 5362 5361 5360 5359 5359 5358 5358 5357 5356 5356 5355 5355 5355 5354 5353 5352 5351 5350 5349 5348 5347 5347 5346 5346 5346 5346 5345 5345 5346 5347
5370 5370 5370 5369 5367 5365 5363 5362 5362 5361 5360 5359 5358 5357 5356 5355 5354 5354 5353 5353 5353 5352 5352 5351 5351 5351 5351 5350 5349 5348 5347 5346 5345 5343 5343 5342 5341 5340 5340 5339 5339 5339 5339 5340
5367 5364 5363 5362 5361 5360 5358 5357 5356 5355 5354 5353 5352 5351 5350 5350 5349 5349 5348 5347 5347 5347 5347 5347 5347 5347 5347 5347 5346 5345 5343 5343 5341 5340 5339 5337 5336 5335 5334 5334 5333 5334 5334 5334
5362 5362 5359 5357 5357 5355 5354 5352 5351 5350 5348 5347 5346 5346 5345 5345 5344 5344 5343 5343 5343 5343 5343 5342 5343 5344 5344 5343 5342 5341 5339 5338 5338 5336 5335 5333 5332 5331 5331 5330 5330 5330 5330 5331
5360 5360 5357 5355 5353 5351 5350 5348 5346 5345 5344 5343 5342 5341 5340 5340 5339 5339 5338 5338 5339 5339 5339 5339 5339 5339 5340 5339 5338 5337 5335 5334 5333 5332 5331 5330 5329 5328 5327 5327 5326 5326 5327 5328
5354 5352 5351 5350 5349 5347 5346 5344 5342 5341 5340 5338 5337 5337 5336 5335 5334 5334 5333 5333 5334 5334 5335 5334 5336 5336 5336 5335 5335 5333 5331 5330 5329 5328 5328 5328 5326 5325 5324 5324 5324 5323 5324 5324
5349 5348 5346 5345 5344 5342 5341 5340 5338 5336 5335 5334 5333 5332 5331 5331 5330 5329 5329 5329 5329 5329 5330 5330 5331 5331 5331 5331 5331 5329 5327 5326 5325 5324 5323 5322 5322 5322 5321 5321 5321 5321 5321 5322
5343 5342 5341 5339 5338 5338 5337 5335 5334 5332 5331 5329 5329 5328 5327 5326 5325 5325 5325 5326 5327 5326 5327 5327 5327 5327 5327 5327 5327 5325 5323 5322 5321 5319 5319 5319 5319 5319 5319 5319 5319 5319 5319 5320
5337 5336 5335 5334 5333 5332 5331 5330 5329 5328 5326 5325 5324 5324 5323 5323 5322 5322 5322 5322 5323 5323 5323 5323 5323 5324 5324 5324 5322 5321 5319 5318 5317 5316 5315 5315 5315 5315 5316 5316 5316 5317 5317 5318
5333 5332 5331 5330 5328 5327 5326 5325 5324 5323 5322 5322 5321 5320 5320 5319 5319 5318 5319 5319 5319 5319 5319 5319 5320 5321 5321 5319 5318 5316 5315 5314 5313 5313 5312 5312 5312 5313 5313 5314 5314 5314 5315 5315
5328 5327 5326 5324 5323 5322 5322 5321 5320 5319 5318 5318 5318 5317 5316 5316 5316 5315 5315 5316 5316 5316 5315 5315 5316 5317 5316 5314 5313 5313 5312 5311 5310 5310 5310 5310 5310 5310 5310 5311 5311 5311 5312 5313
5323 5322 5320 5319 5319 5319 5318 5316 5315 5315 5315 5315 5314 5314 5313 5313 5312 5312 5311 5311 5311 5312 5311 5311 5312 5312 5311 5310 5309 5309 5309 5308 5308 5308 5307 5307 5306 5307 5307 5308 5308 5309 5309 5310
5319 5318 5317 5316 5315 5314 5313 5312 5312 5311 5311 5311 5311 5310 5309 5309 5308 5308 5307 5307 5307 5307 5307 5307 5307 5308 5307 5307 5306 5306 5306 5306 5305 5305 5304 5304 5304 5304 5304 5305 5306 5307 5308 5308
5315 5313 5312 5312 5312 5310 5309 5308 5308 5308 5308 5308 5307 5307 5306 5306 5305 5304 5304 5303 5303 5303 5303 5304 5304 5304 5304 5304 5303 5303 5303 5303 5303 5302 5302 5302 5302 5303 5303 5304 5305 5306 5307 5308